This is the latest recevied weather packets stored in our database for station/object WX5KDM. If no packets are shown the sender has not sent any weather packets the latest 1 day(s).
| Time | Temp. | Humidity | Pressure | Rain* | Wind** | Luminosity | Snow |
|---|---|---|---|---|---|---|---|
| 1777998343 | 21.67° C | 66% | 1013.8 hPa | 0 mm | 0.45 m/s, 231° | - | - |
| 1777998041 | 21.67° C | 68% | 1013.7 hPa | 0 mm | 0 m/s | - | - |
| 1777997737 | 21.67° C | 67% | 1013.7 hPa | 0 mm | 1.34 m/s, 234° | - | - |
| 1777997435 | 21.67° C | 67% | 1013.7 hPa | 0 mm | 0.45 m/s, 248° | - | - |
| 1777997133 | 21.67° C | 68% | 1013.5 hPa | 0 mm | 0.45 m/s, 252° | - | - |
| 1777996830 | 21.67° C | 67% | 1013.4 hPa | 0 mm | 0.45 m/s, 198° | - | - |
| 1777996525 | 21.67° C | 66% | 1013.6 hPa | 0 mm | 0.89 m/s, 197° | - | - |
| 1777996222 | 22.22° C | 64% | 1013.5 hPa | 0 mm | 1.79 m/s, 134° | - | - |
| 1777995919 | 22.22° C | 65% | 1013.3 hPa | 0 mm | 0.89 m/s, 178° | - | - |
| 1777995615 | 22.22° C | 64% | 1013.5 hPa | 0 mm | 0.45 m/s, 218° | - | - |
| 1777995313 | 22.78° C | 63% | 1013.5 hPa | 0 mm | 0 m/s | - | - |
| 1777995009 | 22.22° C | 64% | 1013.4 hPa | 0 mm | 1.34 m/s, 255° | - | - |
| 1777994706 | 22.78° C | 62% | 1013.3 hPa | 0 mm | 2.24 m/s, 200° | - | - |
| 1777994402 | 22.78° C | 62% | 1013.6 hPa | 0 mm | 1.79 m/s, 221° | - | - |
| 1777994097 | 23.33° C | 61% | 1013.4 hPa | 0 mm | 1.34 m/s, 258° | - | - |
| 1777993795 | 23.33° C | 59% | 1013.2 hPa | 0 mm | 1.79 m/s, 130° | - | - |
| 1777993491 | 22.78° C | 61% | 1013.2 hPa | 0 mm | 0.89 m/s, 262° | - | - |
| 1777993191 | 23.33° C | 60% | 1013.2 hPa | 0 mm | 1.79 m/s, 212° | - | - |
| 1777992889 | 22.78° C | 61% | 1013 hPa | 0 mm | 1.34 m/s, 265° | - | - |
| 1777992587 | 22.22° C | 65% | 1013.3 hPa | 0 mm | 1.34 m/s, 243° | - | - |
| 1777992285 | 22.22° C | 62% | 1013.3 hPa | 0 mm | 1.34 m/s, 226° | - | - |
| 1777991982 | 21.67° C | 65% | 1013.4 hPa | 0 mm | 0.45 m/s, 194° | - | - |
| 1777991680 | 21.11° C | 65% | 1013.3 hPa | 0 mm | 1.34 m/s, 226° | - | - |
| 1777991376 | 21.67° C | 64% | 1013.4 hPa | 0 mm | 1.79 m/s, 281° | - | - |
| 1777991073 | 21.11° C | 66% | 1013.6 hPa | 0 mm | 1.34 m/s, 220° | - | - |
* Rain latest hour (hover to see other rain measurements)
** Current wind speed in m/s (hover to see current wind gust speed)